Home   Weather   Rankweil   Past weeks

Flag for Austria Past Weather in Rankweil, Vorarlberg, Austria — Yesterday and Last 2 Weeks

Now
33 °F

Chilly.


Feels Like: 33 °F
Forecast: 37 / 51 °F
Wind: 1 mph from East

Location: Feldkirch

Current Time: Feb 27, 2017 at 5:50:23 am

Latest Report: Feb 27, 2017 at 5:00 am


Visibility: N/A

Pressure: 29.98 "Hg

Humidity: 90%

Dew Point: 31 °F

Location of RankweilLocation

Past Weather in Rankweil — Graph

°F

Rankweil Temperature Yesterday

Maximum temperature yesterday: 51 °F (at 3:00 pm)
Minimum temperature yesterday: 32 °F (at 4:00 am)
Average temperature yesterday: 41 °F

High & Low Weather Summary for the Past Weeks

 TemperatureHumidityPressure
High65 °F (Feb 23, 4:00 pm)100% (Feb 12, 7:00 am)30.67 "Hg (Feb 12, 7:00 am)
Low23 °F (Feb 15, 7:00 am)28% (Feb 23, 5:00 pm)29.56 "Hg (Feb 23, 5:00 pm)
Average40 °F78%30.24 "Hg
* Reported Feb 12 4:00 am — Feb 27 4:00 am, Rankweil, Weather by CustomWeather, © 2017

Note: Actual official high and low records may vary slightly from our data, if they occured in-between our weather recording intervals... More about our weather records

Advertising

Rankweil Weather History for the Previous 24 Hours

Scroll right to see more
 ConditionsComfort  
Time TempWeatherWind HumidityBarometerVisibility
4:00 am
Mon, Feb 27
35 °FChilly.1 mph87%29.99 "HgN/A
3:00 am34 °FChilly.No wind87%30.01 "HgN/A
2:00 am33 °FChilly.1 mph88%30.03 "HgN/A
1:00 am34 °FChilly.No wind88%30.05 "HgN/A
12:00 am37 °FChilly.No wind84%30.05 "HgN/A
11:00 pm
Sun, Feb 26
38 °FChilly.No wind81%30.05 "HgN/A
10:00 pm39 °FChilly.No wind78%30.05 "HgN/A
9:00 pm42 °FQuite cool.1 mph73%30.05 "HgN/A
8:00 pm43 °FQuite cool.1 mph70%30.05 "HgN/A
7:00 pm46 °FCool.2 mph66%30.04 "HgN/A
6:00 pm49 °FCool.1 mph57%30.02 "HgN/A
5:00 pm51 °FCool.1 mph54%30.01 "HgN/A
4:00 pm51 °FCool.1 mph48%30.01 "HgN/A
3:00 pm51 °FCool.1 mph47%30.03 "HgN/A
2:00 pm49 °FCool.2 mph48%30.05 "HgN/A
1:00 pm49 °FCool.2 mph49%30.09 "HgN/A
12:00 pm46 °FCool.No wind52%30.13 "HgN/A
11:00 am43 °FQuite cool.1 mph58%30.14 "HgN/A
10:00 am40 °FQuite cool.1 mph65%30.15 "HgN/A
9:00 am39 °FChilly.No wind72%30.14 "HgN/A
8:00 am35 °FChilly.No wind76%30.15 "HgN/A
7:00 am33 °FChilly.No wind82%30.15 "HgN/A
6:00 am33 °FChilly.1 mph83%30.16 "HgN/A
5:00 am32 °FChilly.1 mph85%30.16 "HgN/A
Weather by CustomWeather, © 2017

See weather overviewHow to use our weather pages